CSC8925 ZUUU-ZSAM

Flight info

Callsign CSC8925
Flight time 2h 7m
Altitude 37100
Route IDBOR B330 QP G586 WYN H25 VETIB W155 TEBON
Aircraft A20N/M-SDE2E3FGHIRWXY/LB1

Departure

Time 2026-04-29 11:26
Airport Chengdu Shuangliu International Airport (ZUUU)

Arrival

Time 2026-04-29 13:34
Airport Xiamen Gaoqi International Airport (ZSAM)
Time Latitude Longitude Altitude Speed Heading
2026-04-29 10:51 30.57089 103.94949 1689 ft 0 kts 182°
2026-04-29 11:03 30.57100 103.94950 1689 ft 2 kts 182°
2026-04-29 11:03 30.57115 103.94951 1689 ft 2 kts 182°
2026-04-29 11:04 30.57131 103.94952 1689 ft 2 kts 182°
2026-04-29 11:04 30.57146 103.94955 1689 ft 2 kts 213°
2026-04-29 11:04 30.57156 103.94967 1689 ft 2 kts 241°
2026-04-29 11:04 30.57161 103.94984 1689 ft 2 kts 270°
2026-04-29 11:05 30.57159 103.94994 1689 ft 0 kts 289°
2026-04-29 11:05 30.57156 103.95003 1689 ft 0 kts 292°
2026-04-29 11:21 30.57158 103.94997 1689 ft 3 kts 292°
2026-04-29 11:21 30.57196 103.94887 1689 ft 19 kts 292°
2026-04-29 11:22 30.57206 103.94859 1689 ft 0 kts 292°
2026-04-29 11:22 30.57206 103.94858 1689 ft 0 kts 292°
2026-04-29 11:23 30.57207 103.94856 1689 ft 1 kts 292°
2026-04-29 11:23 30.57236 103.94775 1689 ft 14 kts 288°
2026-04-29 11:23 30.57172 103.94688 1689 ft 20 kts 199°
2026-04-29 11:23 30.57042 103.94627 1689 ft 19 kts 200°
2026-04-29 11:24 30.56911 103.94584 1689 ft 19 kts 198°
2026-04-29 11:24 30.56750 103.94511 1689 ft 30 kts 201°
2026-04-29 11:24 30.56518 103.94403 1689 ft 37 kts 202°
2026-04-29 11:24 30.56301 103.94299 1689 ft 20 kts 212°
2026-04-29 11:25 30.56293 103.94186 1689 ft 16 kts 293°
2026-04-29 11:25 30.56356 103.94036 1689 ft 22 kts 326°
2026-04-29 11:25 30.56496 103.94070 1689 ft 21 kts 22°
2026-04-29 11:25 30.56843 103.94231 1689 ft 88 kts 22°
2026-04-29 11:26 30.58672 103.95060 1990 ft 168 kts 22°
2026-04-29 11:26 30.59762 103.95563 2578 ft 171 kts 24°
2026-04-29 11:26 30.60859 103.96077 3229 ft 173 kts 25°
2026-04-29 11:27 30.61990 103.96614 3746 ft 181 kts 24°
2026-04-29 11:27 30.63211 103.97192 4138 ft 198 kts 23°
2026-04-29 11:27 30.64526 103.97809 4521 ft 214 kts 22°
2026-04-29 11:27 30.65970 103.98483 4892 ft 234 kts 22°
2026-04-29 11:28 30.67529 103.99210 5411 ft 247 kts 23°
2026-04-29 11:28 30.68988 104.00261 6165 ft 250 kts 42°
2026-04-29 11:28 30.70067 104.01829 6920 ft 254 kts 59°
2026-04-29 11:28 30.70910 104.03638 7660 ft 258 kts 62°
2026-04-29 11:29 30.71728 104.05492 8377 ft 263 kts 62°
2026-04-29 11:29 30.72570 104.07393 9076 ft 266 kts 62°
2026-04-29 11:29 30.73420 104.09293 9793 ft 270 kts 62°
2026-04-29 11:29 30.74301 104.11239 10460 ft 275 kts 62°
2026-04-29 11:30 30.75210 104.13245 10849 ft 291 kts 62°
2026-04-29 11:30 30.75923 104.15505 11289 ft 304 kts 85°
2026-04-29 11:30 30.75687 104.17899 11935 ft 306 kts 112°
2026-04-29 11:30 30.74552 104.19948 12620 ft 306 kts 139°
2026-04-29 11:31 30.72749 104.21225 13254 ft 305 kts 165°
2026-04-29 11:31 30.70658 104.21455 13888 ft 304 kts 191°
2026-04-29 11:31 30.68631 104.20781 14507 ft 306 kts 201°
2026-04-29 11:31 30.66590 104.19963 15120 ft 311 kts 200°
2026-04-29 11:32 30.64542 104.19160 15722 ft 316 kts 200°
2026-04-29 11:32 30.62443 104.18351 16330 ft 320 kts 200°
2026-04-29 11:32 30.60318 104.17541 16917 ft 325 kts 200°
2026-04-29 11:32 30.58136 104.16710 17496 ft 329 kts 200°
2026-04-29 11:33 30.55958 104.15887 18057 ft 333 kts 201°
2026-04-29 11:33 30.53744 104.15052 18649 ft 336 kts 201°
2026-04-29 11:33 30.51519 104.14214 19223 ft 340 kts 201°
2026-04-29 11:33 30.49263 104.13364 19774 ft 343 kts 202°
2026-04-29 11:34 30.46986 104.12475 20333 ft 346 kts 205°
2026-04-29 11:34 30.44728 104.11450 20782 ft 352 kts 207°
2026-04-29 11:34 30.42429 104.10371 21018 ft 366 kts 207°
2026-04-29 11:34 30.40029 104.09240 21255 ft 379 kts 207°
2026-04-29 11:35 30.37530 104.08066 21485 ft 391 kts 207°
2026-04-29 11:35 30.34970 104.06869 21690 ft 403 kts 207°
2026-04-29 11:35 30.32340 104.05643 21909 ft 415 kts 207°
2026-04-29 11:35 30.29530 104.04576 22149 ft 432 kts 194°
2026-04-29 11:36 30.26502 104.04562 22549 ft 449 kts 174°
2026-04-29 11:36 30.23523 104.05740 23025 ft 462 kts 154°
2026-04-29 11:36 30.20877 104.07914 23525 ft 468 kts 144°
2026-04-29 11:36 30.18303 104.10283 23928 ft 473 kts 143°
2026-04-29 11:37 30.15721 104.12662 24334 ft 477 kts 144°
2026-04-29 11:37 30.13119 104.15036 24757 ft 480 kts 144°
2026-04-29 11:37 30.10490 104.17416 25150 ft 484 kts 144°
2026-04-29 11:37 30.07824 104.19814 25524 ft 488 kts 144°
2026-04-29 11:38 30.05163 104.22204 25908 ft 491 kts 144°
2026-04-29 11:38 30.02445 104.24634 26248 ft 495 kts 144°
2026-04-29 11:38 29.99705 104.27083 26620 ft 498 kts 144°
2026-04-29 11:38 29.96988 104.29510 26974 ft 501 kts 144°
2026-04-29 11:39 29.94199 104.31996 27310 ft 504 kts 145°
2026-04-29 11:39 29.91416 104.34477 27628 ft 507 kts 145°
2026-04-29 11:39 29.88618 104.36966 27983 ft 510 kts 145°
2026-04-29 11:39 29.85811 104.39465 28271 ft 513 kts 145°
2026-04-29 11:40 29.82973 104.41988 28565 ft 515 kts 145°
2026-04-29 11:40 29.80143 104.44504 28851 ft 516 kts 145°
2026-04-29 11:40 29.77315 104.47013 29068 ft 519 kts 145°
2026-04-29 11:40 29.74439 104.49564 29378 ft 520 kts 145°
2026-04-29 11:41 29.71599 104.52080 29750 ft 518 kts 145°
2026-04-29 11:41 29.68731 104.54619 30024 ft 520 kts 145°
2026-04-29 11:41 29.65859 104.57162 30254 ft 522 kts 145°
2026-04-29 11:41 29.63018 104.59682 30508 ft 523 kts 146°
2026-04-29 11:42 29.60127 104.62239 30815 ft 522 kts 146°
2026-04-29 11:42 29.57243 104.64782 31046 ft 524 kts 146°
2026-04-29 11:42 29.54345 104.67338 31270 ft 525 kts 146°
2026-04-29 11:42 29.51461 104.69882 31489 ft 525 kts 146°
2026-04-29 11:43 29.48555 104.72444 31731 ft 526 kts 146°
2026-04-29 11:43 29.45670 104.74987 31960 ft 526 kts 147°
2026-04-29 11:43 29.42768 104.77542 32183 ft 527 kts 147°
2026-04-29 11:43 29.39841 104.80114 32423 ft 527 kts 146°
2026-04-29 11:44 29.36935 104.82604 32612 ft 527 kts 149°
2026-04-29 11:44 29.33891 104.84927 32817 ft 525 kts 153°
2026-04-29 11:44 29.30744 104.87005 33018 ft 523 kts 158°
2026-04-29 11:44 29.27477 104.88841 33243 ft 520 kts 162°
2026-04-29 11:45 29.24167 104.90506 33455 ft 520 kts 162°
2026-04-29 11:45 29.20868 104.92133 33706 ft 519 kts 162°
2026-04-29 11:45 29.17520 104.93793 33996 ft 518 kts 163°
2026-04-29 11:45 29.14220 104.95445 34239 ft 518 kts 162°
2026-04-29 11:46 29.10923 104.97105 34453 ft 519 kts 162°
2026-04-29 11:46 29.07620 104.98776 34652 ft 519 kts 162°
2026-04-29 11:46 29.04351 105.00429 34860 ft 520 kts 162°
2026-04-29 11:46 29.01046 105.02100 35041 ft 520 kts 162°
2026-04-29 11:47 28.97739 105.03770 35268 ft 520 kts 162°
2026-04-29 11:47 28.94401 105.05447 35454 ft 520 kts 162°
2026-04-29 11:47 28.91105 105.07098 35570 ft 522 kts 162°
2026-04-29 11:47 28.87745 105.08781 35721 ft 523 kts 162°
2026-04-29 11:48 28.84455 105.10426 35869 ft 523 kts 163°
2026-04-29 11:48 28.81109 105.12096 36042 ft 522 kts 162°
2026-04-29 11:48 28.77797 105.13792 36156 ft 525 kts 160°
2026-04-29 11:48 28.74517 105.15692 36254 ft 528 kts 158°
2026-04-29 11:49 28.68044 105.19624 36486 ft 529 kts 158°
2026-04-29 11:49 28.64764 105.21625 36592 ft 530 kts 157°
2026-04-29 11:49 28.61536 105.23583 36645 ft 532 kts 157°
2026-04-29 11:50 28.55007 105.27539 36872 ft 532 kts 158°
2026-04-29 11:50 28.51727 105.29523 37046 ft 531 kts 158°
2026-04-29 11:50 28.48490 105.31477 37119 ft 531 kts 158°
2026-04-29 11:51 28.41914 105.35429 37194 ft 534 kts 157°
2026-04-29 11:51 28.35380 105.39363 37205 ft 534 kts 158°
2026-04-29 11:52 28.28799 105.43320 37210 ft 534 kts 158°
2026-04-29 11:52 28.22242 105.47255 37225 ft 532 kts 158°
2026-04-29 11:53 28.15714 105.51164 37220 ft 532 kts 158°
2026-04-29 11:53 28.09089 105.54810 37233 ft 527 kts 164°
2026-04-29 11:54 28.02206 105.57482 37227 ft 519 kts 172°
2026-04-29 11:54 27.95247 105.59145 37228 ft 507 kts 180°
2026-04-29 11:55 27.88257 105.60165 37222 ft 507 kts 179°
2026-04-29 11:55 27.81270 105.61937 37236 ft 518 kts 170°
2026-04-29 11:56 27.74496 105.64778 37231 ft 525 kts 161°
2026-04-29 11:56 27.67970 105.68560 37233 ft 526 kts 158°
2026-04-29 11:57 27.61428 105.72209 37241 ft 523 kts 160°
2026-04-29 11:57 27.54901 105.75745 37249 ft 521 kts 161°
2026-04-29 11:58 27.48373 105.79263 37261 ft 521 kts 160°
2026-04-29 11:58 27.41818 105.82795 37262 ft 520 kts 160°
2026-04-29 11:59 27.35325 105.86292 37263 ft 519 kts 161°
2026-04-29 11:59 27.28846 105.89778 37267 ft 516 kts 160°
2026-04-29 12:00 27.22335 105.93275 37267 ft 516 kts 161°
2026-04-29 12:00 27.15879 105.96735 37268 ft 515 kts 160°
2026-04-29 12:01 27.09503 106.00411 37271 ft 519 kts 154°
2026-04-29 12:01 27.03648 106.05198 37270 ft 524 kts 142°
2026-04-29 12:02 26.98610 106.11087 37270 ft 527 kts 131°
2026-04-29 12:02 26.94202 106.17640 37279 ft 528 kts 129°
2026-04-29 12:03 26.89834 106.24240 37273 ft 525 kts 129°
2026-04-29 12:03 26.85472 106.30743 37287 ft 524 kts 129°
2026-04-29 12:04 26.81089 106.37228 37277 ft 523 kts 129°
2026-04-29 12:04 26.76715 106.43681 37279 ft 522 kts 129°
2026-04-29 12:05 26.72327 106.50153 37278 ft 520 kts 129°
2026-04-29 12:05 26.67960 106.56583 37280 ft 519 kts 129°
2026-04-29 12:06 26.63619 106.62966 37280 ft 518 kts 129°
2026-04-29 12:06 26.59248 106.69380 37272 ft 518 kts 130°
2026-04-29 12:07 26.55133 106.75933 37277 ft 520 kts 123°
2026-04-29 12:07 26.51748 106.83074 37275 ft 521 kts 115°
2026-04-29 12:08 26.49238 106.90605 37278 ft 522 kts 107°
2026-04-29 12:08 26.47200 106.98346 37260 ft 521 kts 106°
2026-04-29 12:09 26.45134 107.06107 37259 ft 522 kts 107°
2026-04-29 12:09 26.43098 107.13864 37255 ft 522 kts 107°
2026-04-29 12:10 26.41076 107.21582 37262 ft 522 kts 107°
2026-04-29 12:10 26.39046 107.29311 37251 ft 522 kts 107°
2026-04-29 12:11 26.36994 107.37065 37244 ft 522 kts 107°
2026-04-29 12:11 26.34936 107.44833 37248 ft 523 kts 107°
2026-04-29 12:12 26.32888 107.52557 37244 ft 521 kts 107°
2026-04-29 12:12 26.30823 107.60313 37244 ft 522 kts 107°
2026-04-29 12:13 26.28763 107.68039 37235 ft 521 kts 108°
2026-04-29 12:13 26.26705 107.75745 37235 ft 522 kts 108°
2026-04-29 12:14 26.24635 107.83461 37240 ft 522 kts 108°
2026-04-29 12:14 26.22561 107.91215 37232 ft 521 kts 108°
2026-04-29 12:15 26.20527 107.98929 37233 ft 522 kts 108°
2026-04-29 12:15 26.18486 108.06644 37224 ft 522 kts 108°
2026-04-29 12:16 26.16438 108.14363 37227 ft 522 kts 108°
2026-04-29 12:16 26.14382 108.22093 37232 ft 521 kts 108°
2026-04-29 12:17 26.12318 108.29829 37224 ft 521 kts 108°
2026-04-29 12:17 26.10274 108.37478 37216 ft 520 kts 108°
2026-04-29 12:18 26.08220 108.45194 37208 ft 521 kts 108°
2026-04-29 12:18 26.06179 108.52927 37208 ft 520 kts 108°
2026-04-29 12:19 26.04144 108.60609 37205 ft 520 kts 107°
2026-04-29 12:19 26.02099 108.68310 37202 ft 521 kts 108°
2026-04-29 12:20 26.00052 108.76006 37200 ft 521 kts 108°
2026-04-29 12:20 25.98011 108.83727 37204 ft 520 kts 108°
2026-04-29 12:21 25.95974 108.91416 37196 ft 520 kts 108°
2026-04-29 12:21 25.93931 108.99103 37201 ft 519 kts 108°
2026-04-29 12:22 25.91903 109.06733 37200 ft 520 kts 108°
2026-04-29 12:22 25.89902 109.14432 37198 ft 520 kts 108°
2026-04-29 12:23 25.87897 109.22128 37198 ft 520 kts 108°
2026-04-29 12:23 25.85891 109.29811 37194 ft 520 kts 108°
2026-04-29 12:24 25.83859 109.37539 37200 ft 520 kts 108°
2026-04-29 12:24 25.81849 109.45181 37197 ft 521 kts 108°
2026-04-29 12:25 25.79745 109.52840 37190 ft 519 kts 113°
2026-04-29 12:25 25.76689 109.60042 37187 ft 512 kts 125°
2026-04-29 12:26 25.74751 109.63299 37195 ft 508 kts 131°
2026-04-29 12:26 25.70138 109.69106 37191 ft 500 kts 142°
2026-04-29 12:27 25.65081 109.74399 37194 ft 497 kts 143°
2026-04-29 12:27 25.60055 109.79636 37195 ft 498 kts 143°
2026-04-29 12:28 25.55050 109.84898 37191 ft 497 kts 142°
2026-04-29 12:28 25.50070 109.90145 37186 ft 496 kts 143°
2026-04-29 12:29 25.45059 109.95422 37194 ft 495 kts 143°
2026-04-29 12:29 25.40099 110.00638 37193 ft 495 kts 143°
2026-04-29 12:30 25.35110 110.05878 37198 ft 494 kts 143°
2026-04-29 12:30 25.30135 110.11101 37198 ft 492 kts 143°
2026-04-29 12:31 25.25189 110.16283 37199 ft 491 kts 143°
2026-04-29 12:31 25.20250 110.21455 37196 ft 490 kts 143°
2026-04-29 12:32 25.15316 110.26668 37194 ft 489 kts 142°
2026-04-29 12:32 25.10417 110.31860 37191 ft 490 kts 142°
2026-04-29 12:33 25.05525 110.37035 37186 ft 489 kts 143°
2026-04-29 12:33 25.00639 110.42193 37188 ft 488 kts 142°
2026-04-29 12:34 24.95718 110.47394 37189 ft 488 kts 142°
2026-04-29 12:34 24.90844 110.52548 37183 ft 486 kts 142°
2026-04-29 12:35 24.85966 110.57697 37185 ft 486 kts 142°
2026-04-29 12:35 24.81109 110.62820 37179 ft 486 kts 142°
2026-04-29 12:36 24.76243 110.67947 37183 ft 485 kts 143°
2026-04-29 12:36 24.71586 110.73338 37180 ft 492 kts 133°
2026-04-29 12:37 24.68075 110.79889 37181 ft 504 kts 117°
2026-04-29 12:37 24.66126 110.87316 37187 ft 512 kts 102°
2026-04-29 12:38 24.65432 110.95085 37195 ft 514 kts 97°
2026-04-29 12:38 24.64852 111.02898 37188 ft 513 kts 97°
2026-04-29 12:39 24.64215 111.10691 37197 ft 513 kts 98°
2026-04-29 12:39 24.63549 111.18436 37190 ft 512 kts 98°
2026-04-29 12:40 24.62872 111.26229 37189 ft 513 kts 98°
2026-04-29 12:40 24.62192 111.34021 37187 ft 512 kts 98°
2026-04-29 12:41 24.61501 111.41778 37191 ft 512 kts 98°
2026-04-29 12:41 24.60803 111.49535 37189 ft 511 kts 98°
2026-04-29 12:42 24.60105 111.57247 37185 ft 510 kts 99°
2026-04-29 12:42 24.59396 111.65009 37193 ft 510 kts 99°
2026-04-29 12:43 24.58688 111.72739 37198 ft 510 kts 99°
2026-04-29 12:43 24.57981 111.80427 37194 ft 509 kts 99°
2026-04-29 12:44 24.57268 111.88131 37189 ft 508 kts 99°
2026-04-29 12:44 24.56548 111.95856 37187 ft 508 kts 99°
2026-04-29 12:45 24.55832 112.03509 37192 ft 508 kts 99°
2026-04-29 12:45 24.55105 112.11219 37187 ft 508 kts 99°
2026-04-29 12:46 24.54378 112.18898 37189 ft 508 kts 99°
2026-04-29 12:46 24.53642 112.26608 37187 ft 508 kts 99°
2026-04-29 12:47 24.52908 112.34307 37184 ft 508 kts 99°
2026-04-29 12:47 24.52167 112.41993 37181 ft 507 kts 99°
2026-04-29 12:48 24.51426 112.49667 37187 ft 507 kts 99°
2026-04-29 12:48 24.50675 112.57375 37187 ft 507 kts 99°
2026-04-29 12:49 24.49925 112.65006 37191 ft 508 kts 99°
2026-04-29 12:49 24.49173 112.72671 37178 ft 506 kts 99°
2026-04-29 12:50 24.48418 112.80349 37182 ft 506 kts 99°
2026-04-29 12:50 24.47663 112.87988 37178 ft 505 kts 99°
2026-04-29 12:51 24.46898 112.95686 37179 ft 506 kts 100°
2026-04-29 12:51 24.46137 113.03284 37179 ft 505 kts 99°
2026-04-29 12:52 24.45365 113.10934 37175 ft 505 kts 100°
2026-04-29 12:52 24.44588 113.18554 37176 ft 505 kts 100°
2026-04-29 12:53 24.43806 113.26192 37181 ft 505 kts 99°
2026-04-29 12:53 24.43018 113.33835 37180 ft 505 kts 100°
2026-04-29 12:54 24.42228 113.41459 37175 ft 505 kts 99°
2026-04-29 12:54 24.41445 113.49135 37176 ft 505 kts 99°
2026-04-29 12:55 24.40675 113.56735 37172 ft 505 kts 99°
2026-04-29 12:55 24.39895 113.64365 37174 ft 504 kts 99°
2026-04-29 12:56 24.39112 113.71976 37175 ft 505 kts 100°
2026-04-29 12:56 24.38321 113.79601 37174 ft 505 kts 100°
2026-04-29 12:57 24.37526 113.87259 37172 ft 504 kts 100°
2026-04-29 12:57 24.36729 113.94860 37178 ft 505 kts 100°
2026-04-29 12:58 24.35929 114.02470 37180 ft 504 kts 100°
2026-04-29 12:58 24.35125 114.10085 37172 ft 503 kts 100°
2026-04-29 12:59 24.34331 114.17666 37167 ft 503 kts 100°
2026-04-29 12:59 24.33566 114.25298 37164 ft 504 kts 98°
2026-04-29 13:00 24.32968 114.32935 37164 ft 504 kts 98°
2026-04-29 13:00 24.32332 114.40558 37164 ft 502 kts 99°
2026-04-29 13:01 24.31594 114.48122 37164 ft 502 kts 99°
2026-04-29 13:01 24.30882 114.55725 37163 ft 503 kts 98°
2026-04-29 13:02 24.30216 114.63332 37165 ft 501 kts 98°
2026-04-29 13:02 24.29547 114.70924 37166 ft 502 kts 98°
2026-04-29 13:03 24.28904 114.78480 37163 ft 501 kts 98°
2026-04-29 13:03 24.28252 114.86082 37163 ft 500 kts 98°
2026-04-29 13:04 24.27611 114.93647 37164 ft 501 kts 98°
2026-04-29 13:04 24.26967 115.01223 37168 ft 501 kts 98°
2026-04-29 13:05 24.26317 115.08790 37164 ft 501 kts 98°
2026-04-29 13:05 24.25661 115.16354 37165 ft 500 kts 98°
2026-04-29 13:05 24.25330 115.20170 37022 ft 501 kts 99°
2026-04-29 13:06 24.25001 115.23947 36724 ft 498 kts 98°
2026-04-29 13:06 24.24675 115.27690 36431 ft 494 kts 99°
2026-04-29 13:06 24.24347 115.31425 36138 ft 492 kts 98°
2026-04-29 13:06 24.24021 115.35126 35847 ft 490 kts 98°
2026-04-29 13:07 24.23697 115.38780 35556 ft 489 kts 98°
2026-04-29 13:07 24.23365 115.42509 35260 ft 489 kts 98°
2026-04-29 13:07 24.23041 115.46201 34972 ft 490 kts 98°
2026-04-29 13:07 24.22723 115.49922 34687 ft 490 kts 98°
2026-04-29 13:08 24.22409 115.53596 34402 ft 491 kts 98°
2026-04-29 13:08 24.22087 115.57339 34116 ft 492 kts 98°
2026-04-29 13:08 24.21766 115.61055 33825 ft 493 kts 98°
2026-04-29 13:08 24.21441 115.64801 33532 ft 493 kts 98°
2026-04-29 13:09 24.21117 115.68528 33240 ft 493 kts 99°
2026-04-29 13:09 24.20777 115.72257 32951 ft 494 kts 99°
2026-04-29 13:09 24.20428 115.75984 32681 ft 494 kts 99°
2026-04-29 13:09 24.20076 115.79698 32423 ft 497 kts 99°
2026-04-29 13:10 24.19721 115.83443 32167 ft 497 kts 99°
2026-04-29 13:10 24.19360 115.87244 31906 ft 497 kts 99°
2026-04-29 13:10 24.19008 115.90974 31653 ft 498 kts 99°
2026-04-29 13:10 24.18652 115.94738 31398 ft 499 kts 98°
2026-04-29 13:11 24.18295 115.98498 31145 ft 500 kts 98°
2026-04-29 13:11 24.17933 116.02309 30889 ft 502 kts 98°
2026-04-29 13:11 24.17588 116.06123 30639 ft 502 kts 98°
2026-04-29 13:11 24.17306 116.09869 30391 ft 503 kts 95°
2026-04-29 13:12 24.17142 116.13696 30139 ft 504 kts 94°
2026-04-29 13:12 24.17004 116.17529 29778 ft 505 kts 94°
2026-04-29 13:12 24.16867 116.21354 29119 ft 506 kts 94°
2026-04-29 13:12 24.16727 116.25187 28453 ft 503 kts 94°
2026-04-29 13:13 24.16583 116.29022 27954 ft 497 kts 94°
2026-04-29 13:13 24.16439 116.32770 27446 ft 493 kts 94°
2026-04-29 13:13 24.16294 116.36468 26925 ft 488 kts 94°
2026-04-29 13:13 24.16149 116.40151 26389 ft 484 kts 94°
2026-04-29 13:14 24.16004 116.43799 25815 ft 481 kts 94°
2026-04-29 13:14 24.15861 116.47442 25272 ft 477 kts 93°
2026-04-29 13:14 24.15721 116.51032 24751 ft 473 kts 93°
2026-04-29 13:14 24.15580 116.54608 24195 ft 470 kts 93°
2026-04-29 13:15 24.15440 116.58151 23624 ft 468 kts 93°
2026-04-29 13:15 24.15297 116.61688 23088 ft 465 kts 93°
2026-04-29 13:15 24.15156 116.65208 22527 ft 464 kts 94°
2026-04-29 13:15 24.15015 116.68713 21977 ft 462 kts 94°
2026-04-29 13:16 24.14871 116.72240 21430 ft 459 kts 94°
2026-04-29 13:16 24.14728 116.75710 20905 ft 456 kts 94°
2026-04-29 13:16 24.14585 116.79150 20375 ft 454 kts 94°
2026-04-29 13:16 24.14442 116.82572 19831 ft 451 kts 94°
2026-04-29 13:17 24.14306 116.85976 19297 ft 448 kts 92°
2026-04-29 13:17 24.14260 116.89365 18770 ft 444 kts 91°
2026-04-29 13:17 24.14242 116.92729 18258 ft 440 kts 91°
2026-04-29 13:17 24.14229 116.96036 17747 ft 437 kts 91°
2026-04-29 13:18 24.14214 116.99320 17234 ft 433 kts 91°
2026-04-29 13:18 24.14197 117.02602 16695 ft 431 kts 91°
2026-04-29 13:18 24.14177 117.05866 16142 ft 428 kts 91°
2026-04-29 13:18 24.14158 117.09116 15574 ft 426 kts 91°
2026-04-29 13:19 24.14136 117.12342 15028 ft 423 kts 91°
2026-04-29 13:19 24.14114 117.15513 14481 ft 421 kts 91°
2026-04-29 13:19 24.14091 117.18710 13880 ft 419 kts 92°
2026-04-29 13:19 24.14065 117.21899 13268 ft 418 kts 92°
2026-04-29 13:20 24.14039 117.25059 12685 ft 416 kts 92°
2026-04-29 13:20 24.14014 117.28196 12118 ft 413 kts 92°
2026-04-29 13:20 24.13987 117.31334 11593 ft 409 kts 92°
2026-04-29 13:20 24.13961 117.34402 11078 ft 405 kts 92°
2026-04-29 13:21 24.13934 117.37476 10763 ft 395 kts 92°
2026-04-29 13:21 24.13909 117.40423 10567 ft 382 kts 92°
2026-04-29 13:21 24.13884 117.43258 10329 ft 371 kts 92°
2026-04-29 13:21 24.13859 117.46055 10176 ft 358 kts 92°
2026-04-29 13:22 24.13867 117.48705 10027 ft 347 kts 86°
2026-04-29 13:22 24.14523 117.51182 9787 ft 338 kts 57°
2026-04-29 13:22 24.15957 117.53167 9432 ft 331 kts 44°
2026-04-29 13:22 24.17561 117.54948 9120 ft 321 kts 42°
2026-04-29 13:23 24.19129 117.56662 8776 ft 315 kts 42°
2026-04-29 13:23 24.20652 117.58372 8433 ft 312 kts 44°
2026-04-29 13:23 24.22124 117.60071 8108 ft 310 kts 44°
2026-04-29 13:23 24.23590 117.61794 7783 ft 307 kts 45°
2026-04-29 13:24 24.25034 117.63509 7454 ft 304 kts 45°
2026-04-29 13:24 24.26451 117.65202 7134 ft 301 kts 46°
2026-04-29 13:24 24.27878 117.66911 6776 ft 299 kts 46°
2026-04-29 13:24 24.29262 117.68572 6452 ft 296 kts 46°
2026-04-29 13:25 24.30654 117.70242 6134 ft 293 kts 47°
2026-04-29 13:25 24.33359 117.73490 5512 ft 286 kts 47°
2026-04-29 13:25 24.34691 117.75090 5194 ft 283 kts 47°
2026-04-29 13:26 24.36003 117.76671 4944 ft 277 kts 47°
2026-04-29 13:26 24.37272 117.78196 4909 ft 261 kts 47°
2026-04-29 13:26 24.38467 117.79636 4903 ft 246 kts 47°
2026-04-29 13:26 24.39542 117.81042 4896 ft 240 kts 60°
2026-04-29 13:27 24.40018 117.82761 4732 ft 239 kts 85°
2026-04-29 13:27 24.40122 117.84576 4456 ft 237 kts 87°
2026-04-29 13:27 24.40218 117.86368 4184 ft 235 kts 86°
2026-04-29 13:27 24.40330 117.88166 3906 ft 233 kts 86°
2026-04-29 13:28 24.40450 117.89918 3640 ft 231 kts 85°
2026-04-29 13:28 24.40576 117.91682 3321 ft 232 kts 85°
2026-04-29 13:28 24.40757 117.93445 2976 ft 233 kts 75°
2026-04-29 13:28 24.41498 117.94982 2811 ft 224 kts 52°
2026-04-29 13:29 24.42465 117.96214 2821 ft 208 kts 49°
2026-04-29 13:29 24.43391 117.97374 2864 ft 191 kts 50°
2026-04-29 13:29 24.44191 117.98431 2909 ft 170 kts 52°
2026-04-29 13:29 24.44894 117.99397 2731 ft 151 kts 52°
2026-04-29 13:30 24.45512 118.00262 2555 ft 139 kts 53°
2026-04-29 13:30 24.46102 118.01094 2380 ft 138 kts 53°
2026-04-29 13:30 24.46687 118.01920 2203 ft 137 kts 53°
2026-04-29 13:30 24.47278 118.02753 2022 ft 137 kts 52°
2026-04-29 13:31 24.47865 118.03580 1845 ft 136 kts 52°
2026-04-29 13:31 24.48448 118.04399 1661 ft 136 kts 52°
2026-04-29 13:31 24.49029 118.05216 1482 ft 136 kts 52°
2026-04-29 13:31 24.49610 118.06029 1304 ft 135 kts 53°
2026-04-29 13:32 24.50197 118.06851 1130 ft 135 kts 53°
2026-04-29 13:32 24.50776 118.07663 953 ft 135 kts 53°
2026-04-29 13:32 24.51352 118.08469 779 ft 134 kts 53°
2026-04-29 13:32 24.51922 118.09267 599 ft 134 kts 54°
2026-04-29 13:33 24.52501 118.10078 428 ft 133 kts 53°
2026-04-29 13:33 24.53071 118.10873 247 ft 131 kts 54°
2026-04-29 13:33 24.53625 118.11649 81 ft 129 kts 54°
2026-04-29 13:33 24.54121 118.12357 71 ft 93 kts 52°
2026-04-29 13:34 24.54415 118.12767 71 ft 45 kts 51°
2026-04-29 13:34 24.54522 118.13026 71 ft 22 kts 79°
2026-04-29 13:34 24.54547 118.13181 71 ft 17 kts 81°
2026-04-29 13:34 24.54580 118.13288 71 ft 14 kts 52°
2026-04-29 13:35 24.54644 118.13380 71 ft 16 kts 53°
2026-04-29 13:35 24.54758 118.13538 71 ft 46 kts 52°
2026-04-29 13:35 24.54876 118.13718 71 ft 11 kts 90°
2026-04-29 13:35 24.54814 118.13788 71 ft 23 kts 140°
2026-04-29 13:36 24.54670 118.13921 71 ft 11 kts 103°
2026-04-29 13:36 24.54695 118.13979 71 ft 4 kts 47°
2026-04-29 13:36 24.54716 118.14006 71 ft 1 kts 52°